Regional Weather Roundup
Issued by NWS Wakefield, VA

Home | Current Version | Previous Version | Graphics & Text | Print | Product List | Glossary On
Versions: 1 2 3 4 5 6 7 8 9 10 11 12 13 14 15 16 17 18 19 20 21 22 23 24 25 26 27 28 29 30 31 32 33 34 35 36 37 38 39 40 41 42 43 44 45 46 47 48 49 50
000
ASUS41 KAKQ 310310
RWRAKQ

REGIONAL WEATHER ROUNDUP
NATIONAL WEATHER SERVICE WAKEFIELD VA
1100 PM EDT WED JUL 30 2014

Note: "fair" indicates few or no clouds below 12,000 feet with no
significant weather and/or obstructions to visibility. * = Denotes
station may not report precipitation (e.g., rain,snow,etc.),
thunder or fog.

VAZ042-051-052>054-056-310400-
NORTHERN VIRGINIA

CITY           SKY/WX    TMP DP  RH WIND       PRES   REMARKS
WASH NATIONAL  PTCLDY    73  55  53 S6        30.06F
DULLES         PTCLDY    66  55  67 S3        30.06F
FORT BELVOIR   CLEAR     62  59  90 CALM      30.06F
QUANTICO       CLEAR     66  62  87 W6        30.07S
FREDERICKSBRG* CLEAR     65  60  82 CALM      30.06S
STAFFORD*      CLEAR     60  60 100 CALM      30.10S
WARRENTON      CLEAR     60  60 100 CALM      30.06S
CULPEPER*      CLEAR    N/A N/A N/A CALM      30.07S
MANASSAS*      NOT AVBL
LEESBURG*      CLEAR     64  61  88 SW5       30.07S
WINCHESTER     PTCLDY    66  55  68 SW5       30.06S
$$

VAZ048-049-060>072-079>083-310400-
CENTRAL AND SOUTH CENTRAL VIRGINIA...AND NORTH CENTRAL NORTH CAROLINA

CITY           SKY/WX    TMP DP  RH WIND       PRES   REMARKS
RICHMOND       CLEAR     70  59  68 CALM      30.08S
CHESTERFIELD*  CLEAR     64  52  63 CALM      30.09S
HANOVER        CLEAR     62  57  83 CALM      30.09S
TAPPAHANNOCK*  CLEAR     62  59  88 CALM      30.08F
CHARLOTTSVILLE PTCLDY    65  58  78 CALM      30.07S
ORANGE*        PTCLDY    63  59  88 CALM      30.09S
LOUISA*        CLEAR     63  57  82 S3        30.07S
FARMVILLE*     CLEAR     63  61  94 CALM      30.07R
SOUTH HILL*    CLEAR     66  66 100 CALM      30.14S
ROANOKE RAPIDS NOT AVBL
RALEIGH        MOCLDY    70  65  84 CALM      30.09S
$$

VAZ088>098-310400-
SOUTHEAST VIRGINIA

CITY           SKY/WX    TMP DP  RH WIND       PRES   REMARKS
NORFOLK        CLEAR     70  59  68 S5        30.08S
VIRGINIA BEACH CLEAR     68  60  75 CALM      30.08S
NORFOLK NAVAL  PTCLDY    73  60  63 S5        30.10S
WEST POINT*    CLEAR     68  61  76 CALM      30.09S
NEWPORT NEWS   CLEAR     74  60  61 S6        30.08S
LANGLEY AFB    CLEAR     72  61  68 S6        30.08S
FORT EUSTIS    CLEAR     72  61  67 S8        30.06F
WILLIAMSBURG*  CLEAR     70  64  83 SE5       30.09S
FRANKLIN*      CLEAR     70  63  78 CALM      30.09S
WAKEFIELD      CLEAR     65  63  93 CALM      30.08S
$$

VAZ020-022-025-037-045-310400-
WESTERN AND SOUTHWEST VIRGINIA

CITY           SKY/WX    TMP DP  RH WIND       PRES   REMARKS
STAUNTON*      PTCLDY    61  56  82 CALM      30.11S
HOT SPRINGS VA CLEAR     54  47  77 W8        30.20F
LYNCHBURG      CLEAR     62  58  86 CALM      30.11S
DANVILLE       CLEAR     69  63  81 CALM      30.09S
MARTINSVILLE   CLEAR     61  59  94 CALM      30.13R
ROANOKE        PTCLDY    67  57  70 CALM      30.12S
BLACKSBURG     CLEAR     61  57  88 CALM        N/A
DUBLIN*        CLEAR     62  58  88 CALM      30.16S
MARION*        CLEAR     58  55  90 CALM      30.20R
HILLSVILLE*    CLEAR     64  53  67 CALM      30.17S
RICHLANDS*     MOCLDY    67  56  67 CALM      30.17S
WISE*          PTCLDY    59  57  94 CALM      30.19R
ABINGDON*      PTCLDY    62  58  87 CALM      30.16R
$$

MDZ021>025-VAZ099-100-310400-
SOUTHERN MARYLAND AND THE DELMARVA PENINSULA

CITY           SKY/WX    TMP DP  RH WIND       PRES   REMARKS
PATUXENT RIVER CLEAR     67  57  70 S6        30.07S
BAY BRIDGE APT   N/A     72  54  53 S5        30.06F
LEONARDTOWN    CLEAR     61  54  77 CALM      30.09S
DOVER          CLEAR     64  55  73 S2        30.05S
GEORGETOWN     CLEAR     63  58  83 CALM      30.08S
EASTON         CLEAR     69  58  68 CALM      30.10
CAMBRIDGE      CLEAR     63  55  77 CALM      30.07S
SALISBURY      CLEAR     63  55  75 CALM      30.08S
OCEAN CITY     CLEAR     58  57  97 CALM      30.08S
WALLOPS ISLAND CLEAR     68  60  75 CALM      30.09S
ACCOMACK*        N/A     63  59  88 CALM      30.08S
$$

NCZ012>017-030>032-310400-
EASTERN NORTH CAROLINA

CITY           SKY/WX    TMP DP  RH WIND       PRES   REMARKS
ELIZABETH CITY CLEAR     70  62  76 CALM      30.10R
AHOSKIE*       PTCLDY    67  64  91 CALM      30.10R
EDENTON*       CLEAR     72  63  74 SE5       30.10R
CURRITUCK*     CLEAR     67  57  71 CALM      30.10S
KILL DEVIL HLS CLEAR     73  60  63 E5        30.08S
MANTEO         NOT AVBL
CAPE HATTERAS  PTCLDY    73  64  73 E5        30.08S
GOLDSBORO      MOCLDY    70  69  98 CALM      30.06S
WASHINGTON     PTCLDY    70  64  81 CALM      30.09S
GREENVILLE     MOCLDY    72  66  83 CALM      30.11R
NEW BERN       CLOUDY    75  67  76 CALM      30.09R
WILMINGTON     PTCLDY    73  68  84 NE3       30.06S
$$

VAZ048-310400-
ELSEWHERE

CITY           SKY/WX    TMP DP  RH WIND       PRES   REMARKS
HARRISBURG PA  CLOUDY    68  55  63 N5        30.06S
BALTIMORE      PTCLDY    64  56  75 CALM      30.05S
ANNAPOLIS      CLEAR     70  55  59 CALM      30.05F
ANDREWS AFB    CLEAR     64  57  78 S6        30.06F
WILMINGTON DE  CLEAR     69  54  58 SW6       30.06F
PHILADELPHIA   CLEAR     73  54  51 SW9       30.06S
WILDWOOD NJ*   CLEAR     63  55  77 CALM      30.08F
ATLANTIC CITY  CLEAR     66  57  72 SW7       30.07S
HENDERSON NC   PTCLDY    67  65  93 CALM      30.09S
GREENSBORO     PTCLDY    71  62  73 SE5       30.09S
ROCKY MOUNT    MOCLDY    71  64  78 CALM      30.09R
FAYETTEVILLE   CLOUDY    74  64  71 NE5       30.07R
CHARLOTTE      CLOUDY    79  57  46 NE5       30.08R
$$

VAZ100-310400-
MARINE

STATION/POSITION TIME  TEMP    WIND        PRES    WAVE   SWELL
                       AIR SEA DIR/SP/G            HT/PER HT/PER
                 (UTC) (F)     (DEG/KT/KT) (MB)    (FT/S) (FT/S)
44066 TX TWR #4  0300   72 75  230/  6/  8 1018.3R   3/ 8   3/ 8
CAPE MAY NJ      0300   69 77  150/  5/  6 1017.9F
LEWES DE         0300   68 74  180/  4/  5 1018.0F
15NM E FENWICK I 0200   73 75              1018.9R   2/ 8
OCEAN-CITY-INLET 0300   69 72  270/  3/  3 1018.0S
WACHAPREAGUE VA  0300   74 80  170/  6/  8 1018.5R
THOMAS POINT MD  0300   75 77  210/  8/  9 1018.2F
GOOSES REEF MD   0300   76     200/  4/  6 1018.5F
COVE POINT MD    0300   72     210/  2/  3 1018.0S
SOLOMONS ISLAND  0300      80                N/A
BISHOPS HEAD MD  0300   74 79  180/  5/  6 1017.9F
PINEY POINT MD   0300          180/  9/ 10   N/A
POTOMAC MD       0300   75     170/  6/  8 1017.7S
CAMBRIDGE MD     0300   69 79  190/  3/  3 1017.9F
LEWISETTA VA     0300   71 78  190/  2/  3 1018.1F
RAPPAHANNOCK LGT 0300          170/ 12/ 13 1018.9S
STINGRAY PT      0300   76     200/  8/  8 1019.0S
YORK RVR RNG VA  0300   74     190/ 13/ 15 1017.9S
YORKTOWN VA      0300   72 79  170/  8/  9 1018.3R
JAMESTOWN VA     0300   74     190/  4/  6   N/A
DOMINION TERM VA 0300   74     160/ 11/ 12 1018.6F
KIPTOPEKE VA     0300      81  180/ 11/ 12   N/A
CHES BAY BRIDGE  0300   74 78  150/  8/  9 1018.2S
CAPE HENRY VA    0300   71     180/  5/  6 1017.5F
WILLOUBY STN VA  0300          160/ 11/ 12 1017.8F
S CRANEY ISL VA  0300          130/  9/ 11 1018.6F
CAPE HENRY BUOY  0300      78                N/A     2/ 8
1ST LANDING BUOY 0300   74     170/  8/  8 1018.4S
CAPE CHARLES BUO 0300      76                N/A     2/ 8
OFFSHORE WE BUOY 0300      78                N/A     2/ 8
64NM E OF VA BCH 0300   74 78   90/  6/  8 1018.6R   2/ 7   2/ 7
DUCK PIER NC     0300   74 77  110/  9/ 11 1018.2R
44056 DUCK FRF   0200                        N/A     2/ 8
OREGON INLET NC  0300   74 79   70/  7/ 10 1018.7S
HATTERAS NC      0300   74 80   70/  4/  9 1018.8R
DIAMOND SHLS NC  0300          VRB 14/ 16  1017.7F   4/ 7   3/ 7
CAPE LOOKOUT NC  0200   79      80/ 14/ 16 1017.8R
$$



USA.gov is the U.S. government's official web portal to all federal, state and local government web resources and services.